Weather reports worldwide

Advertisment
D15-FA-1, Netherlands (6201): temperature & dewpoint: 09.08.2020 22:00:00 - 15.08.2020 22:00:00 (CEST)D15-FA-1, Netherlands (6201): wind speed & gusts: 09.08.2020 22:00:00 - 15.08.2020 22:00:00 (CEST)D15-FA-1, Netherlands (6201): wind direction: 09.08.2020 22:00:00 - 15.08.2020 22:00:00 (CEST)D15-FA-1, Netherlands (6201): reduced air pressure: 09.08.2020 22:00:00 - 15.08.2020 22:00:00 (CEST)D15-FA-1, Netherlands (6201): visibility: 09.08.2020 22:00:00 - 15.08.2020 22:00:00 (CEST)
Date & Time tt [°C] td [°C] ff [km/h] ff [kn] fx [km/h] fx [kn] dd ppp [hPa] vv [km]
15.08.2020 22:00:00 17,0 14,8 29 16 36 19 - 1016,5 10
15.08.2020 21:00:00 16,9 14,6 28 15 36 19 - 1016,3 10
15.08.2020 20:00:00 16,9 14,5 35 19 36 19 - 1016,3 10
15.08.2020 19:00:00 17,1 14,5 24 13 32 18 NE 1016,4 10
15.08.2020 18:00:00 17,0 14,5 29 16 36 19 - 1016,7 10
15.08.2020 17:00:00 17,1 14,8 28 15 32 18 NNE 1016,9 10
15.08.2020 16:00:00 17,1 14,5 26 14 32 18 - 1017,2 10
15.08.2020 15:00:00 17,1 14,6 22 12 25 14 ENE 1017,5 10
15.08.2020 14:00:00 16,9 14,3 22 12 29 16 ENE 1017,7 10
15.08.2020 13:00:00 17,0 14,9 24 13 29 16 NE 1017,4 10
15.08.2020 12:00:00 16,9 14,6 26 14 36 19 - 1017,3 10
15.08.2020 11:00:00 16,9 14,2 34 18 40 21 - 1017,2 10
15.08.2020 10:00:00 17,0 14,3 28 15 40 21 ENE 1017,0 10
15.08.2020 09:00:00 16,9 14,5 32 18 40 21 NNE 1016,7 35
15.08.2020 08:00:00 17,1 14,4 39 21 40 21 - 1016,5 10
15.08.2020 07:00:00 17,2 14,7 39 21 43 23 - 1016,3 10
15.08.2020 06:00:00 17,3 15,0 39 21 43 23 - 1016,1 10
15.08.2020 05:00:00 17,1 15,3 34 18 36 19 - 1016,3 10
15.08.2020 04:00:00 16,9 15,3 29 16 36 19 - 1016,4 10
15.08.2020 03:00:00 17,0 15,7 35 19 40 21 - 1016,3 10
15.08.2020 02:00:00 16,9 15,8 34 18 36 19 - 1016,3 10
15.08.2020 01:00:00 16,8 15,5 37 20 36 19 - 1016,6 10
15.08.2020 00:00:00 17,2 16,0 34 18 36 19 - 1016,4 10
14.08.2020 23:00:00 17,5 16,3 37 20 36 19 NNE 1016,1 10
14.08.2020 22:00:00 17,4 16,3 37 20 36 19 NNE 1015,8 10
14.08.2020 21:00:00 17,3 16,3 37 20 36 19 - 1015,6 10
14.08.2020 20:00:00 17,3 16,3 35 19 36 19 NNE 1015,3 10
14.08.2020 19:00:00 17,5 16,7 37 20 36 19 NNE 1015,0 10
14.08.2020 18:00:00 17,9 17,0 34 18 32 18 NNE 1014,8 10
14.08.2020 17:00:00 18,9 17,3 31 17 32 18 NNE 1014,8 10
14.08.2020 16:00:00 19,3 17,5 31 17 36 19 NNE 1014,6 10
14.08.2020 15:00:00 19,6 16,5 35 19 36 19 - 1014,2 10
14.08.2020 14:00:00 19,5 16,8 35 19 36 19 - 1014,2 10
14.08.2020 13:00:00 19,4 17,1 35 19 36 19 - 1014,2 10
14.08.2020 12:00:00 19,4 17,0 28 15 32 18 - 1014,3 10
14.08.2020 11:00:00 19,5 16,9 22 12 25 14 - 1014,3 10
14.08.2020 10:00:00 19,9 16,6 26 14 29 16 ENE 1013,8 10
14.08.2020 09:00:00 20,2 16,6 29 16 36 19 ENE 1013,8 10
14.08.2020 08:00:00 19,9 16,2 31 17 32 18 - 1013,1 10
14.08.2020 07:00:00 19,7 16,2 31 17 32 18 - 1013,1 10
14.08.2020 06:00:00 19,7 16,3 24 13 29 16 - 1012,9 10
14.08.2020 05:00:00 20,2 16,1 28 15 25 14 ENE 1013,0 10
14.08.2020 04:00:00 20,3 16,2 28 15 29 16 ENE 1013,1 10
14.08.2020 03:00:00 20,5 16,6 26 14 25 14 E 1013,3 10
14.08.2020 02:00:00 19,9 17,5 21 11 25 14 NE 1013,7 10
14.08.2020 01:00:00 19,6 18,0 24 13 29 16 - 1014,1 10
14.08.2020 00:00:00 19,8 17,7 26 14 25 14 - 1014,1 10
13.08.2020 23:00:00 19,7 17,9 24 13 25 14 - 1013,8 10
13.08.2020 22:00:00 19,6 18,0 22 12 22 12 ENE 1013,8 10
13.08.2020 21:00:00 19,8 17,9 21 11 22 12 ENE 1013,7 10
13.08.2020 20:00:00 19,9 18,0 21 11 18 10 ENE 1013,5 10
13.08.2020 19:00:00 19,6 18,1 18 10 18 10 - 1013,1 10
13.08.2020 18:00:00 19,8 18,1 16 9 18 10 E 1013,4 10
13.08.2020 17:00:00 19,7 18,2 16 9 14 8 ENE 1013,7 10
13.08.2020 16:00:00 19,7 18,3 15 8 14 8 ENE 1013,8 10
13.08.2020 15:00:00 19,9 18,4 13 7 18 10 E 1013,7 10
13.08.2020 14:00:00 20,2 17,9 22 12 22 12 SSE 1013,6 10
13.08.2020 13:00:00 19,7 18,2 24 13 25 14 ESE 1013,6 10
13.08.2020 12:00:00 19,7 18,2 22 12 22 12 E 1013,6 10
13.08.2020 11:00:00 19,8 17,9 16 9 22 12 ESE 1013,4 10
13.08.2020 10:00:00 19,7 18,0 18 10 18 10 E 1013,3 10
13.08.2020 09:00:00 19,9 17,9 15 8 14 8 E 1013,3 10
13.08.2020 08:00:00 19,4 17,8 18 10 18 10 ENE 1013,3 10
13.08.2020 07:00:00 19,0 17,9 16 9 14 8 ENE 1013,1 10
13.08.2020 06:00:00 19,2 17,9 15 8 18 10 ENE 1013,0 10
13.08.2020 05:00:00 19,1 17,8 18 10 22 12 ENE 1013,0 10
13.08.2020 04:00:00 19,2 17,8 18 10 18 10 ENE 1013,3 10
13.08.2020 03:00:00 19,6 17,7 15 8 18 10 - 1013,7 10
13.08.2020 02:00:00 19,9 17,7 16 9 14 8 E 1014,1 10
13.08.2020 01:00:00 19,6 17,8 13 7 14 8 E 1015,0 10
13.08.2020 00:00:00 19,4 18,0 15 8 14 8 E 1015,0 10
12.08.2020 23:00:00 19,3 18,1 5 3 14 8 - 1015,2 10
12.08.2020 22:00:00 19,3 18,0 13 7 14 8 E 1015,2 10
12.08.2020 21:00:00 19,4 18,0 8 4 11 6 ENE 1014,7 10
12.08.2020 20:00:00 19,7 18,1 9 5 18 10 ESE 1014,8 10
12.08.2020 19:00:00 19,6 18,2 15 8 22 12 ESE 1015,0 9
12.08.2020 18:00:00 19,8 17,9 22 12 29 16 SE 1015,1 10
12.08.2020 17:00:00 19,9 17,8 28 15 32 18 SE 1015,2 10
12.08.2020 16:00:00 19,7 17,7 35 19 32 18 ESE 1015,3 10
12.08.2020 15:00:00 19,1 17,7 31 17 29 16 ESE 1015,6 10
12.08.2020 14:00:00 19,2 17,6 26 14 25 14 ESE 1015,9 10
12.08.2020 13:00:00 19,2 17,5 29 16 29 16 E 1015,9 10
12.08.2020 12:00:00 20,2 17,7 8 4 18 10 - 1016,0 10
12.08.2020 11:00:00 20,7 18,1 18 10 18 10 SSE 1015,8 10
12.08.2020 10:00:00 19,9 17,7 8 4 25 14 SSE 1015,4 10
12.08.2020 09:00:00 19,3 17,5 28 15 29 16 ESE 1015,3 10
12.08.2020 08:00:00 21,3 17,7 18 10 22 12 S 1014,9 10
12.08.2020 07:00:00 20,7 17,2 18 10 29 16 S 1014,7 20
12.08.2020 06:00:00 20,8 17,1 29 16 36 19 SE 1014,7 10
12.08.2020 05:00:00 20,0 17,7 42 23 40 21 ESE 1014,6 10
12.08.2020 04:00:00 19,9 17,7 41 22 43 23 ESE 1014,6 10
12.08.2020 03:00:00 19,7 17,9 42 23 43 23 ESE 1014,7 10
12.08.2020 02:00:00 20,0 17,9 48 26 47 25 E 1014,7 10
12.08.2020 01:00:00 20,2 17,9 40 21 47 25 E 1015,6 16
12.08.2020 00:00:00 20,3 17,9 46 25 47 25 ESE 1015,9 10
11.08.2020 23:00:00 20,2 17,7 46 25 47 25 E 1016,1 10
11.08.2020 22:00:00 20,3 17,8 44 24 40 21 E 1015,8 10
11.08.2020 21:00:00 19,9 17,8 42 23 40 21 E 1015,9 10
11.08.2020 20:00:00 19,7 17,8 41 22 40 21 E 1015,8 10
11.08.2020 19:00:00 19,5 17,7 39 21 40 21 E 1016,0 10
11.08.2020 18:00:00 19,5 17,6 37 20 36 19 E 1016,5 10
11.08.2020 17:00:00 19,7 17,5 37 20 36 19 E 1017,0 10
11.08.2020 16:00:00 19,5 17,7 37 20 36 19 E 1017,3 10
11.08.2020 15:00:00 19,3 17,6 37 20 32 18 E 1017,7 10
11.08.2020 14:00:00 19,2 17,5 35 19 32 18 E 1018,3 10
11.08.2020 13:00:00 19,0 17,5 35 19 36 19 E 1018,3 10
11.08.2020 12:00:00 18,8 17,6 37 20 36 19 E 1018,2 10
11.08.2020 11:00:00 18,9 17,6 39 21 40 21 E 1018,3 10
11.08.2020 10:00:00 18,8 17,6 35 19 36 19 E 1018,2 10
11.08.2020 09:00:00 19,0 17,6 34 18 36 19 ESE 1017,9 10
11.08.2020 08:00:00 19,0 17,6 39 21 40 21 E 1017,6 10
11.08.2020 07:00:00 19,0 17,6 39 21 43 23 E 1017,5 10
11.08.2020 06:00:00 19,2 17,6 26 14 36 19 E 1017,1 10
11.08.2020 05:00:00 19,4 17,5 35 19 32 18 E 1017,0 10
11.08.2020 04:00:00 19,2 17,2 31 17 32 18 E 1017,1 10
11.08.2020 03:00:00 19,2 17,0 29 16 32 18 E 1017,4 24
11.08.2020 02:00:00 19,0 16,7 35 19 32 18 E 1017,5 10
11.08.2020 01:00:00 19,1 16,4 35 19 36 19 E 1017,7 10
11.08.2020 00:00:00 19,1 16,3 39 21 36 19 E 1017,9 10
10.08.2020 23:00:00 19,1 16,3 39 21 36 19 E 1018,1 10
10.08.2020 22:00:00 19,0 16,3 39 21 36 19 E 1017,7 10
10.08.2020 21:00:00 18,8 16,6 35 19 36 19 E 1017,2 10
10.08.2020 20:00:00 18,7 16,8 31 17 32 18 E 1017,0 10
10.08.2020 19:00:00 18,5 16,7 28 15 29 16 E 1017,1 10
10.08.2020 18:00:00 18,7 16,6 28 15 29 16 E 1017,5 10
10.08.2020 17:00:00 18,6 16,7 29 16 32 18 ENE 1017,6 10
10.08.2020 16:00:00 18,5 16,8 28 15 29 16 E 1018,0 10
10.08.2020 15:00:00 18,4 16,7 31 17 32 18 E 1017,9 10
10.08.2020 14:00:00 18,2 16,6 29 16 29 16 E 1018,1 10
10.08.2020 13:00:00 18,2 16,4 29 16 29 16 E 1018,2 10
10.08.2020 12:00:00 18,1 16,1 29 16 32 18 E 1018,2 10
10.08.2020 11:00:00 18,2 15,6 34 18 32 18 ENE 1018,0 10
10.08.2020 10:00:00 18,3 15,2 29 16 29 16 ENE 1018,2 10
10.08.2020 09:00:00 18,2 14,8 29 16 32 18 ENE 1018,2 10
10.08.2020 08:00:00 18,0 14,5 31 17 32 18 ENE 1018,2 10
10.08.2020 07:00:00 17,8 14,3 31 17 36 19 NE 1018,2 10
10.08.2020 06:00:00 17,6 14,1 34 18 40 21 - 1018,2 10
10.08.2020 05:00:00 17,3 14,4 32 18 36 19 NNE 1018,5 20
10.08.2020 04:00:00 17,6 13,8 29 16 32 18 - 1019,0 10
10.08.2020 03:00:00 17,5 13,8 31 17 32 18 NNE 1019,1 10
10.08.2020 02:00:00 17,5 14,0 29 16 32 18 ENE 1019,3 10
10.08.2020 01:00:00 17,4 14,0 31 17 36 19 ENE 1019,7 10
10.08.2020 00:00:00 17,3 13,8 34 18 36 19 ENE 1019,9 10
09.08.2020 23:00:00 17,3 14,2 34 18 40 21 - 1020,1 10
09.08.2020 22:00:00 17,4 14,2 37 20 40 21 - 1020,1 10

tt = temperature
td = dewpoint
ff = wind speed
fx = gusts
dd = wind direction
ppp = reduced air pressure
vv = visibility

Next stations